Location: Clarion
(42.7316°N, 93.7330°W)
Time: 09:11:05
(UTC+00:00)

NOSS 3-4 (C) - Pass Details

Date: 22 April 2026
Orbit: 773 x 1438 km, 63.4° (Epoch: 26 December)

Event Time Altitude Azimuth Distance (km) Brightness Sun altitude
Rises 08:56:05 0° 325° (NW) 3,709 6.7 -23.6°
Reaches altitude 10° 08:58:33 10° 330° (NNW) 2,846 6.1 -23.3°
Maximum altitude 09:05:18 60° 50° (NE) 1,317 4.4 -22.4°
Drops below altitude 10° 09:13:12 10° 130° (SE) 3,314 6.4 -21.3°
Sets 09:16:17 0° 133° (SE) 4,358 7.0 -20.9°
